Location: Unspecified
(33.9239°N, 118.0544°W)
Time: 12:29:08
(UTC-07:00)

Cosmos 1674 - Visible Passes

Search period start: 24 May 2018 00:00
Search period end: 03 June 2018 00:00
Orbit: 496 x 521 km, 82.5° (Epoch: 23 May)

Date Brightness Start Highest point End Pass type
(mag) Time Alt. Az. Time Alt. Az. Time Alt. Az.
24 May 5.8 01:35:41 13° NNE 01:35:41 13° NNE 01:36:07 10° NNE visible
25 May 5.9 01:18:40 11° NNE 01:18:40 11° NNE 01:18:51 10° NNE visible
28 May 5.8 02:02:24 10° NNW 02:02:24 10° NNW 02:02:31 10° NNW visible
29 May 5.8 01:45:20 12° NNW 01:45:20 12° NNW 01:45:38 10° NNW visible
30 May 5.8 01:28:16 13° NNW 01:28:16 13° NNW 01:28:41 10° N visible
31 May 5.8 01:11:10 13° N 01:11:10 13° N 01:11:40 10° N visible
01 Jun 5.8 00:54:04 13° N 00:54:04 13° N 00:54:35 10° N visible
02 Jun 5.8 00:36:57 13° N 00:36:57 13° N 00:37:26 10° N visible
